"TOA5","AWS1","CR1000","7964","CR1000.Std.14","CPU:AWS1_114.CR1","64363","TBL110"
"TIMESTAMP","RECORD","Wind_spd_WVc(1)","Wind_spd_WVc(2)","Air_Temp_Avg","Humidity_Avg","SW_upper_Wm2_Avg","Rain_Tot","Press_Avg","Issui_Tot","Depth_cm","SR50A_Raw","Quality","Ground_Temp_Avg(1)","Ground_Temp_Avg(2)","SW_lower_Wm2_Avg","Albedo_Avg","SWC_per(1)","SWC_per(2)","Period(1)","Period(2)"
"TS","RN","","","","","","","","","","","","","","","","","","",""
"","","WVc","WVc","Avg","Avg","Avg","Tot","Avg","Tot","Smp","Smp","Smp","Avg","Avg","Avg","Avg","Smp","Smp","Smp","Smp"
"2015-12-11 00:00:00",213037,1.718,154,8.3,77.98,0,0,863.6891,0,0.522,3.128,192,2.923,3.979,0.06821174,0,52.55,59.67,33.92,35.6
"2015-12-11 00:10:00",213038,1.825,153.6,8.5,78.49,0,0,863.2784,0,0.018,3.132,193,2.923,3.982,0.2501097,0,52.55,59.73,33.92,35.62
"2015-12-11 00:20:00",213039,1.788,146.7,8.59,79.34,0,0,862.8866,0,-0.636,3.137,180,2.923,4.012,0.2690574,0,52.66,59.79,33.95,35.63
"2015-12-11 00:30:00",213040,2.09,157.2,8.71,79.74,0,0,862.6212,0,-0.104,3.132,187,2.923,3.996,0.1477921,0,52.66,59.85,33.95,35.64
"2015-12-11 00:40:00",213041,2.119,143.3,8.81,80.5,0,0,862.1073,0.5,-0.758,3.137,182,2.923,4.025,0.0189477,0,52.72,59.91,33.96,35.66
"2015-12-11 00:50:00",213042,2.316,154.2,8.97,80.2,0,0,861.8441,0,-1.233,3.14,177,2.922,4.017,0.03031592,0,52.83,60.03,33.99,35.69
"2015-12-11 01:00:00",213043,0.736,128.7,9.03,80,0,0,861.6882,0,-1.389,3.143,192,2.919,4.009,0.08336867,0,52.83,60.15,33.99,35.71
"2015-12-11 01:10:00",213044,1.638,156,9.13,80,0,0,861.5154,0,-0.921,3.136,194,2.916,3.989,0.4547313,0,52.94,60.27,34.02,35.74
"2015-12-11 01:20:00",213045,1.604,157,9.18,79.99,0,0,861.1526,0,-1.179,3.14,191,2.913,4.02,0.1477867,0,53,60.56,34.03,35.81
"2015-12-11 01:30:00",213046,2.517,156.9,9.17,80.3,0,0,860.627,0,-0.717,3.135,180,2.91,3.984,0.05684007,0,53.11,60.74,34.06,35.85
"2015-12-11 01:40:00",213047,2.088,148.7,9.12,80.9,0,0,860.3132,0.5,-1.087,3.14,186,2.893,3.986,0.01515712,0,53.16,60.98,34.07,35.9
"2015-12-11 01:50:00",213048,2.516,146.1,9.16,80.9,0,0,859.8842,0,-1.242,3.139,184,2.867,3.961,0.01515444,0,53.22,61.22,34.08,35.96
"2015-12-11 02:00:00",213049,1.824,135.1,9.36,79.59,0,0,859.5433,0,-1.035,3.138,192,2.852,3.952,0,0,53.33,61.52,34.11,36.02
"2015-12-11 02:10:00",213050,1.194,150.2,9.12,81.5,0,0,859.2473,0,-1.878,3.147,187,2.837,3.923,0,0,53.39,61.82,34.13,36.09
"2015-12-11 02:20:00",213051,1.35,151.5,9.21,81.7,0,0,859.0499,0,-1.743,3.144,198,2.814,3.915,0.08334529,0,53.5,62.18,34.15,36.17
"2015-12-11 02:30:00",213052,2.303,156,9.49,80.3,0,0,858.5352,0,-1.866,3.144,178,2.8,3.894,0.2121493,0,53.61,62.42,34.18,36.23
"2015-12-11 02:40:00",213053,2.245,153.9,9.6,80,0,0,858.1865,0,-1.827,3.141,187,2.779,3.892,0.4924873,0,53.67,62.66,34.19,36.28
"2015-12-11 02:50:00",213054,3.007,154.7,10.11,78.08,0,0,857.8099,0.5,-1.899,3.141,190,2.778,3.893,1.098613,0,53.73,62.96,34.21,36.35
"2015-12-11 03:00:00",213055,2.864,150.9,10.12,79.11,0,0,857.4735,0,-1.771,3.14,196,2.748,3.887,0.325792,0,53.78,63.39,34.22,36.44
"2015-12-11 03:10:00",213056,2.772,149.4,10.28,78.74,0,0,856.9724,0,-2.272,3.143,175,2.745,3.884,0.6705216,0,53.9,64.36,34.25,36.66
"2015-12-11 03:20:00",213057,3.465,151,10.31,79.06,0,0,856.6034,0,-2.354,3.145,182,2.738,3.907,0.6856739,0,54.01,65.46,34.27,36.91
"2015-12-11 03:30:00",213058,2.54,149.2,10.26,80.2,0,0,857.0378,0.5,-2.174,3.143,190,2.726,3.884,0.2159304,0,54.18,66.2,34.32,37.07
"2015-12-11 03:40:00",213059,1.934,157.4,10.26,81.8,0,0,857.0442,0,-2.789,3.15,173,2.703,3.865,0.1060711,0,54.29,66.88,34.34,37.22
"2015-12-11 03:50:00",213060,2.996,159.2,10.34,82.5,0,0,856.6583,0.5,-3.14,3.152,173,2.675,3.857,0.04924728,0,54.35,67.01,34.36,37.25
"2015-12-11 04:00:00",213061,1.573,168.6,10.22,84.4,0,0,856.5308,1,-3.249,3.155,196,2.675,3.846,0,0,54.52,67.13,34.4,37.27
"2015-12-11 04:10:00",213062,1.484,154.8,10.03,86.6,0,0,856.2841,1.5,-3.049,3.154,210,2.715,3.838,0.003788252,0,54.63,67.2,34.42,37.29
"2015-12-11 04:20:00",213063,2.333,155.7,10.26,85.3,0,0,855.6398,1,-3.772,3.157,193,2.747,3.818,0,0,54.92,67.32,34.49,37.31
"2015-12-11 04:30:00",213064,1.391,132.7,10.3,85.5,0,0,855.6798,1,-3.727,3.158,187,2.748,3.797,0,0,55.09,67.38,34.53,37.33
"2015-12-11 04:40:00",213065,1.935,144.1,10.57,84.2,0,0,855.1998,1,-3.899,3.158,189,2.748,3.789,0.003788252,0,55.32,67.32,34.59,37.31
"2015-12-11 04:50:00",213066,2.282,150.2,10.71,83.5,0,0,854.5976,1,-4.054,3.16,181,2.748,3.808,0,0,55.6,67.32,34.65,37.31
"2015-12-11 05:00:00",213067,2.088,141.5,10.75,84,0,0,853.9554,1,-4.559,3.164,185,2.698,3.834,0,0,55.89,67.32,34.72,37.31
"2015-12-11 05:10:00",213068,2.022,154.3,10.87,82.7,0,0,853.608,0.5,-4.095,3.158,173,2.62,3.845,0,0,55.83,67.26,34.71,37.3
"2015-12-11 05:20:00",213069,1.803,149.7,11.06,81.7,0.06286315,0,852.7426,0.5,-4.144,3.158,180,2.578,3.872,0.007576504,0.016,55.55,67.32,34.64,37.31
"2015-12-11 05:30:00",213070,0.828,138.4,10.99,83.4,0,0,852.1594,0.5,-4.918,3.168,181,2.577,3.853,0.1136476,0,55.49,67.38,34.63,37.33
"2015-12-11 05:40:00",213071,0.515,314.9,10.26,89.8,0,0,852.2037,1,-4.098,3.166,190,2.592,3.785,0.003788252,0,55.49,67.38,34.63,37.33
"2015-12-11 05:50:00",213072,0.89,5.109,9.37,98.8,0,0,852.3826,1.5,-4.307,3.17,186,2.628,3.728,0,0,55.66,67.32,34.67,37.31
"2015-12-11 06:00:00",213073,0.489,313.1,9.19,100,0.0510763,0,852.0541,1,-4.23,3.169,186,2.659,3.744,0,0,56.06,67.32,34.76,37.31
"2015-12-11 06:10:00",213074,0.938,296.7,9.51,100,0.2318079,0,851.9278,1.5,-3.464,3.16,210,2.662,3.767,0.1212241,0.224,56.23,67.32,34.8,37.31
"2015-12-11 06:20:00",213075,0.379,129.5,9.49,100,0.06679209,0,851.7047,1,-4.18,3.169,190,2.661,3.69,0,0,56.41,67.32,34.84,37.31
"2015-12-11 06:30:00",213076,1.053,146.5,9.41,100,0.1375131,0,851.1677,0.5,-4.224,3.167,187,2.612,3.659,0.03788252,0.072,56,67.32,34.75,37.31
"2015-12-11 06:40:00",213077,1.437,148.5,10.3,98.1,0.2593105,0,850.7783,1,-3.8,3.158,182,2.611,3.697,0.1856243,0.346,55.83,67.32,34.71,37.31
"2015-12-11 06:50:00",213078,2.045,155.8,11.1,90.9,0.6757788,0,850.3676,0.5,-4.189,3.157,186,2.725,3.699,0.07576504,0.057,55.83,67.38,34.71,37.33
"2015-12-11 07:00:00",213079,2.858,153.9,11.96,85.7,1.917326,0,850.0602,0.5,-4.534,3.157,184,2.706,3.699,0.04924728,0.021,55.72,67.38,34.68,37.33
"2015-12-11 07:10:00",213080,2.032,167.2,12.16,85.6,3.05672,0,849.8265,0,-4.656,3.157,188,2.784,3.69,0.1477418,0.041,55.6,67.32,34.65,37.31
"2015-12-11 07:20:00",213081,2.171,153.3,12.51,85.1,11.04427,0,849.5717,0,-4.097,3.147,184,2.77,3.675,1.227394,0.109,55.55,67.38,34.64,37.33
"2015-12-11 07:30:00",213082,1.839,157.6,12.81,84.6,6.49062,0,849.1275,0.5,-4.332,3.15,181,2.749,3.669,0.5076258,0.072,55.49,67.38,34.63,37.33
"2015-12-11 07:40:00",213083,1.906,146.8,12.87,86.4,24.2416,0,848.8664,0.5,-3.533,3.141,195,2.841,3.653,2.655565,0.108,55.43,67.32,34.61,37.31
"2015-12-11 07:50:00",213084,2.169,146.9,13.23,85.8,32.72027,0,848.8707,0,-4.829,3.152,208,2.836,3.644,3.390486,0.094,55.32,67.32,34.59,37.31
"2015-12-11 08:00:00",213085,1.895,143,13.19,87.9,25.35342,0,848.5822,0,-4.314,3.147,189,2.895,3.638,2.629039,0.097,55.32,67.32,34.59,37.31
"2015-12-11 08:10:00",213086,1.764,146.7,13.52,89,25.65837,0,848.2874,0,-4.293,3.145,191,2.924,3.602,2.678127,0.1,55.2,67.32,34.56,37.31
"2015-12-11 08:20:00",213087,1.194,125.5,13.9,86.6,55.37937,0,847.9316,0,-3.973,3.141,237,2.881,3.565,6.920259,0.124,55.15,67.32,34.55,37.31
"2015-12-11 08:30:00",213088,1.827,72.14,14.07,86,98.65231,0,847.8453,0.5,-3.695,3.135,193,2.916,3.541,15.49532,0.155,55.09,67.32,34.53,37.31
"2015-12-11 08:40:00",213089,2.713,149.4,14.83,80.2,85.09864,0,847.6516,0,-4.239,3.137,188,2.963,3.549,13.71877,0.163,55.03,67.26,34.52,37.3
"2015-12-11 08:50:00",213090,2.444,163.6,15.11,77.93,118.8384,0,847.2857,0,-3.9,3.133,196,2.951,3.568,18.30173,0.154,55.03,67.32,34.52,37.31
"2015-12-11 09:00:00",213091,2.637,122.7,15.43,74.64,167.5574,0,847.2411,0,-3.66,3.129,185,3.019,3.555,26.35048,0.158,54.97,67.32,34.51,37.31
"2015-12-11 09:10:00",213092,2.223,139.9,15.44,74.06,178.3263,0,847.0739,0,-3.345,3.127,242,2.991,3.562,24.37627,0.137,54.92,67.26,34.49,37.3
"2015-12-11 09:20:00",213093,2.31,154,15.23,74.78,97.75799,0,846.9607,0,-5.197,3.147,179,3.095,3.54,15.043,0.152,54.92,67.26,34.49,37.3
"2015-12-11 09:30:00",213094,2.485,131.2,14.79,75.02,4.603286,0,846.6857,0,-5.511,3.152,192,3.06,3.521,0.9429792,0.226,54.8,67.26,34.46,37.3
"2015-12-11 09:40:00",213095,2.159,118,14.46,76.73,17.77252,0,847.1174,0,-4.367,3.143,204,3.147,3.522,2.302485,0.118,54.8,67.26,34.46,37.3
"2015-12-11 09:50:00",213096,2.287,129.9,13.98,79.62,31.16561,0,846.788,0,-3.875,3.142,190,3.173,3.512,3.412056,0.115,54.69,67.26,34.44,37.3
"2015-12-11 10:00:00",213097,2.694,158.7,13.43,80.7,64.51096,0,846.1458,0.5,-3.91,3.144,185,3.23,3.491,5.934168,0.092,54.69,67.2,34.44,37.29
"2015-12-11 10:10:00",213098,1.58,142.2,13.07,83.3,29.71234,0,846.4658,0,-4.45,3.15,224,3.241,3.481,2.700102,0.091,54.69,67.26,34.44,37.3
"2015-12-11 10:20:00",213099,1.07,35.36,12.61,92.2,50.5208,0,847.556,1.5,-3.728,3.147,198,3.332,3.483,4.968491,0.096,54.8,67.26,34.46,37.3
"2015-12-11 10:30:00",213100,0.875,20.49,12.32,99.9,23.19644,0,847.8929,0,-3.781,3.148,235,3.341,3.498,1.912415,0.081,54.92,67.26,34.49,37.3
"2015-12-11 10:40:00",213101,1.332,64.82,12.51,100,59.82547,0,847.982,1,-3.798,3.146,216,3.448,3.488,5.86223,0.097,54.97,67.26,34.51,37.3
"2015-12-11 10:50:00",213102,1.006,57.85,12.55,100,37.86288,0,848.0603,0,-3.962,3.149,198,3.505,3.495,3.378034,0.086,54.97,67.26,34.51,37.3
"2015-12-11 11:00:00",213103,0.658,91.5,12.35,100,45.57833,0,848.0827,0,-4.356,3.154,196,3.593,3.506,4.037109,0.087,54.97,67.32,34.51,37.31
"2015-12-11 11:10:00",213104,0.888,57.82,11.81,100,11.63431,0,848.0235,1,-3.4,3.148,214,3.657,3.511,0.3105504,0.018,54.92,67.32,34.49,37.31
"2015-12-11 11:20:00",213105,0.612,210.1,11.42,100,19.05405,0,847.9824,7.5,-3.229,3.148,218,3.722,3.529,1.223268,0.058,60.68,67.26,35.83,37.3
"2015-12-11 11:30:00",213106,0.561,250.5,11.14,100,28.44568,0,848.1064,1.5,-3.236,3.149,198,3.957,3.565,2.147354,0.075,62.66,67.38,36.28,37.33
"2015-12-11 11:40:00",213107,0.671,227.4,10.97,100,48.65662,0,848.2545,0.5,-4.854,3.166,209,4.131,3.56,4.287311,0.088,61.22,67.26,35.96,37.3
"2015-12-11 11:50:00",213108,0.5,124.2,10.91,100,77.21314,0,848.4612,0,-3.817,3.156,265,4.306,3.566,7.578897,0.095,56.58,67.32,34.88,37.31
"2015-12-11 12:00:00",213109,0.344,214.2,10.88,100,96.70673,0,848.4836,0,-4.506,3.163,217,4.417,3.57,9.703889,0.1,56.12,67.38,34.78,37.33
"2015-12-11 12:10:00",213110,0.425,224.2,10.76,100,53.63293,0,848.4318,0,-3.437,3.153,280,4.531,3.57,4.314097,0.076,55.83,67.32,34.71,37.31
"2015-12-11 12:20:00",213111,0.34,260.7,10.37,100,25.4199,0,848.4986,0,-3.809,3.161,191,4.618,3.563,1.185522,0.045,55.6,67.38,34.65,37.33
"2015-12-11 12:30:00",213112,0.697,203.6,9.59,100,16.04316,0,848.6895,1,-4.23,3.168,200,4.688,3.551,0.3901252,0.021,55.55,67.32,34.64,37.31
"2015-12-11 12:40:00",213113,0.776,329.7,9.07,100,21.06001,0,848.9852,1,-4.243,3.173,190,4.762,3.572,1.109796,0.05,55.55,67.32,34.64,37.31
"2015-12-11 12:50:00",213114,1.864,300.7,8.2,100,31.83518,0,849.1141,1,-3.617,3.171,196,4.816,3.647,2.185477,0.067,55.77,67.32,34.7,37.31
"2015-12-11 13:00:00",213115,1.862,297,7.755,100,29.7492,0,849.4504,1,-4.027,3.176,195,4.96,3.698,2.371071,0.08,55.83,67.38,34.71,37.33
"2015-12-11 13:10:00",213116,1.32,310.5,7.552,100,25.57047,0,849.7103,1,-1.404,3.151,234,5.022,3.706,2.174198,0.085,55.89,67.38,34.72,37.33
"2015-12-11 13:20:00",213117,0.608,312.4,7.508,100,16.44958,0,850.1064,0.5,-3.973,3.177,195,5.136,3.691,1.447032,0.088,55.89,67.38,34.72,37.33
"2015-12-11 13:30:00",213118,1.107,301.8,7.432,100,24.19792,0,850.4138,1,-2.833,3.165,220,5.182,3.697,2.197144,0.091,55.83,67.38,34.71,37.33
"2015-12-11 13:40:00",213119,1.339,328.8,7.495,100,26.39841,0,850.5001,1,-3.393,3.171,218,5.221,3.801,2.405523,0.091,55.83,67.38,34.71,37.33
"2015-12-11 13:50:00",213120,1.928,348,7.36,100,27.55757,0,850.8686,1.5,-4.383,3.182,194,5.259,3.87,2.43584,0.088,55.89,67.38,34.72,37.33
"2015-12-11 14:00:00",213121,2.488,278.7,6.908,100,28.51626,0,851.1508,0.5,-4.187,3.183,185,5.362,3.834,2.488879,0.087,56,67.38,34.75,37.33
"2015-12-11 14:10:00",213122,1.889,305.4,6.473,99.9,27.34544,0,851.3002,0.5,-3.659,3.18,193,5.367,3.788,2.485091,0.091,55.89,67.38,34.72,37.33
"2015-12-11 14:20:00",213123,1.655,318.1,6.141,100,27.80513,0,851.3887,0.5,-3.206,3.177,193,5.343,3.808,2.587374,0.093,55.83,67.38,34.71,37.33
"2015-12-11 14:30:00",213124,1.137,305.7,5.995,100,24.58732,0,851.7844,0.5,-4.394,3.189,195,5.353,3.877,2.428267,0.099,55.77,67.38,34.7,37.33
"2015-12-11 14:40:00",213125,1.91,290.9,5.841,100,28.38312,0,852.0466,0.5,-4.429,3.191,225,5.445,3.946,2.814712,0.099,55.72,67.38,34.68,37.33
"2015-12-11 14:50:00",213126,1.567,307.9,5.695,100,25.02195,0,852.4207,0,-3.285,3.18,188,5.519,3.919,2.41335,0.096,55.6,67.38,34.65,37.33
"2015-12-11 15:00:00",213127,1.711,280.8,5.651,100,19.09443,0,852.8446,0.5,-3.119,3.179,214,5.548,3.962,1.894491,0.099,55.49,67.38,34.63,37.33
"2015-12-11 15:10:00",213128,2.382,303.9,5.528,99.3,19.39442,0,853.2206,0,-4.24,3.19,189,5.502,4.029,1.943883,0.1,55.37,67.38,34.6,37.33
"2015-12-11 15:20:00",213129,1.489,269.5,5.456,98.1,21.85167,0,853.5696,0,-3.817,3.187,188,5.432,4.107,2.353229,0.108,55.32,67.38,34.59,37.33
"2015-12-11 15:30:00",213130,1.72,278.1,5.39,96.2,19.25032,0,853.8444,0,-3.668,3.186,194,5.433,4.109,2.069067,0.107,55.09,67.38,34.53,37.33
"2015-12-11 15:40:00",213131,1.328,273.4,5.266,95.7,14.5027,0,854.1625,0,-4.023,3.19,185,5.476,4.093,1.625708,0.112,55.03,67.38,34.52,37.33
"2015-12-11 15:50:00",213132,1.223,280.6,5.155,97.1,10.17943,0,854.2869,0.5,-4.024,3.191,192,5.518,4.153,1.167178,0.115,54.86,67.32,34.48,37.31
"2015-12-11 16:00:00",213133,1.449,272.7,5.006,97,7.538283,0,854.4449,0,-4.377,3.195,192,5.508,4.216,0.9019107,0.12,54.8,67.32,34.46,37.31
"2015-12-11 16:10:00",213134,1.257,291.3,4.867,99.4,4.751712,0,854.5691,0,-4.176,3.194,195,5.434,4.216,0.6214847,0.13,54.63,67.32,34.42,37.31
"2015-12-11 16:20:00",213135,1.648,276.5,4.708,98.4,3.690536,0,854.7713,0,-4.63,3.199,195,5.391,4.193,0.4699031,0.131,54.58,67.32,34.41,37.31
"2015-12-11 16:30:00",213136,1.824,301.8,4.577,96.6,2.102702,0,855.0093,0,-4.554,3.199,185,5.368,4.265,0.280426,0.135,54.46,67.32,34.38,37.31
"2015-12-11 16:40:00",213137,1.563,273.1,4.392,98,0.8607321,0,855.3105,0,-4.176,3.196,193,5.408,4.311,0.189477,0.258,54.41,67.26,34.37,37.3
"2015-12-11 16:50:00",213138,1.751,292.3,4.221,97.6,0.3144227,0,855.5464,0,-5.11,3.207,192,5.41,4.296,0.06821174,0.161,54.29,67.26,34.34,37.3
"2015-12-11 17:00:00",213139,1.431,269.6,4.01,94.8,0.003930284,0,855.7486,0,-4.279,3.2,192,5.346,4.307,0.007579082,0,54.29,67.2,34.34,37.29
"2015-12-11 17:10:00",213140,1.153,252.6,3.784,95.8,0,0,855.8897,0,-3.976,3.198,208,5.3,4.307,0.07958036,0,54.18,66.64,34.32,37.16
"2015-12-11 17:20:00",213141,1.668,297.6,3.575,93.2,0,0,856.1699,0,-3.725,3.197,192,5.345,4.307,0.03789541,0,54.12,66.33,34.3,37.1
"2015-12-11 17:30:00",213142,1.139,254.7,3.478,94.4,0,0,856.29,0,-3.977,3.2,189,5.345,4.339,0.189477,0,54.07,66.14,34.29,37.06
"2015-12-11 17:40:00",213143,1.333,287.9,3.329,94.3,0,0,856.5174,0,-3.725,3.198,196,5.33,4.348,0.05684311,0,54.07,65.96,34.29,37.01
"2015-12-11 17:50:00",213144,1.183,291.7,3.234,93.6,0,0,856.5869,0,-4.129,3.202,197,5.33,4.325,0.04168498,0,54.01,65.71,34.27,36.96
"2015-12-11 18:00:00",213145,1.49,272.4,3.18,93.7,0,0,856.5764,0,-3.98,3.201,192,5.257,4.312,0.1477942,0,53.95,65.59,34.26,36.93
"2015-12-11 18:10:00",213146,1.525,268.8,3.082,94.6,0,0,856.7154,0,-3.482,3.197,198,5.269,4.363,0.08337321,0,53.95,65.52,34.26,36.92
"2015-12-11 18:20:00",213147,1.105,276.5,3.037,96.3,0,0,856.7912,0,-4.57,3.208,198,5.276,4.413,0.2046521,0,53.84,65.4,34.23,36.89
"2015-12-11 18:30:00",213148,1.227,266.6,3.002,98.6,0,0,856.8397,0,-3.65,3.199,226,5.254,4.43,0.1705529,0,53.84,64.97,34.23,36.8
"2015-12-11 18:40:00",213149,0.785,225.7,3.022,100,0,0,856.8102,0,-4.842,3.211,216,5.23,4.465,0.1933044,0,53.78,64.97,34.22,36.8
"2015-12-11 18:50:00",213150,1.427,285,2.981,100,0,0,857.0042,0,-3.995,3.202,203,5.244,4.523,0.05306843,0,53.78,64.85,34.22,36.77
"2015-12-11 19:00:00",213151,1.589,272,3.099,100,0,0,857.2289,0,-4.048,3.202,275,5.25,4.523,0.02653473,0,53.78,64.79,34.22,36.76
"2015-12-11 19:10:00",213152,0.737,239.2,3.145,100,0,0,857.3524,0,-0.907,3.171,408,5.235,4.551,0.2198632,0,53.73,64.73,34.21,36.74
"2015-12-11 19:20:00",213153,1.014,255.9,3.085,100,0,0,857.508,0,-2.668,3.189,248,5.176,4.582,0.2084916,0,53.73,64.66,34.21,36.73
"2015-12-11 19:30:00",213154,0.964,276.4,3.054,100,0,0,857.6962,0,-2.19,3.184,258,5.162,4.57,0.06444323,0,53.67,63.57,34.19,36.49
"2015-12-11 19:40:00",213155,1.259,292.6,2.992,100,0,0,857.8425,0,-3.825,3.201,211,5.171,4.566,0.03032619,0,53.67,63.45,34.19,36.46
"2015-12-11 19:50:00",213156,1.748,292.4,2.831,100,0,0,857.9254,0,-3.424,3.198,225,5.132,4.568,0.007581601,0,53.61,63.39,34.18,36.44
"2015-12-11 20:00:00",213157,1.223,264.3,2.757,100,0,0,858.134,0,-3.926,3.203,192,5.101,4.571,0.03790824,0,53.56,63.32,34.17,36.43
"2015-12-11 20:10:00",213158,1.072,259.2,2.632,100,0,0,858.3683,0,-4.831,3.213,192,5.142,4.604,0.03790834,0,53.56,63.26,34.17,36.42
"2015-12-11 20:20:00",213159,1.037,259.6,2.518,100,0,0,858.6696,0,-2.922,3.195,257,5.092,4.622,0.01516335,0,53.56,63.2,34.17,36.4
"2015-12-11 20:30:00",213160,1.396,299.4,2.408,99.9,0,0,858.9323,0,-4.503,3.211,190,5.088,4.637,0.0416992,0,53.56,63.14,34.17,36.39
"2015-12-11 20:40:00",213161,1.032,253.6,2.346,99.2,0,0,859.1373,0,-3.725,3.204,193,5.066,4.644,0.1364701,0,53.5,63.08,34.15,36.38
"2015-12-11 20:50:00",213162,1.408,328.1,2.262,98.9,0,0,859.4225,0,-3.574,3.203,204,5.046,4.616,0.08339839,0,53.5,63.02,34.15,36.36
"2015-12-11 21:00:00",213163,1.029,312.3,2.212,99.6,0,0,859.5479,0,-2.871,3.196,294,5.052,4.615,0.07960757,0,53.5,63.02,34.15,36.36
"2015-12-11 21:10:00",213164,1.02,275.1,2.095,100,0,0,859.5466,0,-4.076,3.209,196,5.004,4.663,0.08339839,0,53.5,62.96,34.15,36.35
"2015-12-11 21:20:00",213165,1.596,275.8,1.979,100,0,0,859.7282,0,-4.351,3.212,199,5.006,4.665,0.03790836,0,53.45,62.96,34.14,36.35
"2015-12-11 21:30:00",213166,1.059,277.1,1.906,100,0,0,859.8525,0,-4.125,3.21,207,5.016,4.681,0.1440518,0,53.45,62.84,34.14,36.32
"2015-12-11 21:40:00",213167,0.841,240.6,1.869,100,0,0,859.8555,0,-2.695,3.196,302,4.964,4.695,0.208496,0,53.45,62.84,34.14,36.32
"2015-12-11 21:50:00",213168,1.078,251.4,1.823,100,0,0,859.9258,0,-3.547,3.205,217,4.971,4.698,0.1402609,0,53.39,62.78,34.13,36.31
"2015-12-11 22:00:00",213169,0.964,286.5,1.755,100,0,0,860.1682,0,-3.622,3.206,221,4.916,4.696,0.1478426,0,53.33,62.78,34.11,36.31
"2015-12-11 22:10:00",213170,1.052,256.6,1.736,100,0,0,860.2947,0,-3.396,3.204,217,4.911,4.686,0.1895418,0,53.39,62.72,34.13,36.3
"2015-12-11 22:20:00",213171,1.452,267.7,1.639,100,0,0,860.398,0.5,-1.716,3.188,342,4.844,4.671,0.07202589,0,53.33,62.66,34.11,36.28
"2015-12-11 22:30:00",213172,1.054,269.6,1.532,100,0,0,860.4232,0,-2.869,3.2,244,4.872,4.682,0.1402609,0,53.33,62.66,34.11,36.28
"2015-12-11 22:40:00",213173,0.988,270.1,1.444,100,0,0,860.497,0,-2.418,3.196,290,4.893,4.663,0.1402609,0,53.33,62.6,34.11,36.27
"2015-12-11 22:50:00",213174,1.185,276.9,1.414,100,0,0,860.6719,0,-3.219,3.204,298,4.836,4.675,0.1705876,0,53.28,62.54,34.1,36.25
"2015-12-11 23:00:00",213175,1.043,269.1,1.374,100,0,0,860.6803,0,-3.018,3.202,251,4.828,4.687,0.1781693,0,53.28,62.54,34.1,36.25
"2015-12-11 23:10:00",213176,0.628,214.2,1.343,100,0,0,860.7919,0,-3.695,3.209,230,4.788,4.707,0.1364701,0,53.33,62.54,34.11,36.25
"2015-12-11 23:20:00",213177,0.58,234.7,1.259,100,0,0,860.9984,0,-3.921,3.212,242,4.793,4.724,0.1895418,0,53.28,62.48,34.1,36.24
"2015-12-11 23:30:00",213178,0.645,295.4,1.178,100,0,0,861.1796,0,-3.168,3.205,262,4.825,4.738,0.1705876,0,53.22,62.42,34.08,36.23
"2015-12-11 23:40:00",213179,0.611,279.3,1.139,99.4,0,0,861.3566,0,-1.74,3.191,351,4.766,4.742,0.2047052,0,53.28,62.36,34.1,36.21
"2015-12-11 23:50:00",213180,0.854,269.3,0.989,99.3,0,0,861.4178,0,-3.117,3.206,275,4.743,4.744,0.1667968,0,53.28,62.36,34.1,36.21
